Find Starlink 6140

NORAD ID: 57111 Int'l Des: 2023-090 Owner: SPXS Country: US Constellation: starlink operational
LEOCIRCULAR

Live Position

Loading 3D Globe...

About Starlink 6140

Description loading...

Upcoming Passes

Passes for default location (London). Set your location on the main map for personalized predictions.

Altitude History

Loading altitude history...

Two-Line Element Set

1 57111U 23090L 26127.86147863 .00000118 00000-0 14063-4 0 9998
2 57111 43.0012 307.2329 0001264 253.6751 106.3961 15.26741863159380
Epoch: May 7, 2026 • Age: 5 hours

Current Status

Altitude 488.6 km
Velocity 7.63 km/s
Sub-Earth Point 39.60°N, 170.11°E
Launch Date Jun 23, 2023
Age 2.8 years
Type internet

Technical Details

Classification Payload
Mass 305.00 kg
Dry Mass 290.00 kg
Total Mass 305.00 kg
Length 0.20 m
Diameter 2.80 m
Span 9.00 m
Shape Box + pan
Manufacturer SPXS
Bus Type Starlink
Phase Status In Orbit
Owner/State SPXS/US

Most Searched